Tracking 30109 objects as of 12-Dec-2024
HD Live streaming from Space Station
objects crossing your sky now

STARLINK-5347

Track STARLINK-5347 now!
10-day predictions
STARLINK-5347 is classified as:


NORAD ID: 57137
Int'l Code: 2023-090AN
Perigee: 565.3 km
Apogee: 567.2 km
Inclination: 43.0 °
Period: 95.8 minutes
Semi major axis: 6937 km
RCS: Unknown
Launch date: June 23, 2023
Source: United States (US)
Launch site: AIR FORCE EASTERN TEST RANGE (AFETR)
Your satellite tracking list
Your tracking list is empty




NASA's NSSDC Master Catalog

Two Line Element Set (TLE):
1 57137U 23090AN  24346.33337275  .00001123  00000-0  98236-4 0  9998
2 57137  43.0030 205.3150 0001331 272.4782  87.5908 15.02533121 82179
Source of the keplerian elements: AFSPC